Retour au catalogue

FENGYUN 1C DEB *

ActifSSO
NORAD 46997·DEBRIS·🇨🇳 China

Lancé May 10, 1999 depuis Taiyuan Satellite Launch Center

Loading…

Prochains Passages (prochaines 24 heures)

TLE

FraisSource: Space-Track

Époque: Sep 13, 2026, 08:10 UTC

1 46997U 99025EZX 26256.34085971  .00001382  00000-0  55921-3 0  9997
2 46997  98.5372 296.1249 0024146 246.6674 173.1543 14.29220490663727

Suivez FENGYUN 1C DEB * en temps réel avec AllMySat

Download on the App Store